Weather Roundup
Issued by NWS

Home | Current Version | Previous Version | Graphics & Text | Print | Product List | Glossary Off
Versions: 1 2 3 4 5 6 7 8 9 10 11 12 13 14 15 16 17 18 19 20 21 22 23 24 25 26 27 28 29 30 31 32 33 34 35 36 37 38 39 40 41 42 43 44 45 46 47 48 49 50

000
NZUS93 KARX 270559
HRRWXR

CURRENT HOURLY OBSERVATIONS ACROSS
MUCH OF THE UPPER MISSISSIPPI VALLEY
NATIONAL WEATHER SERVICE LA CROSSE WI
100 AM CDT FRI MAY 27 2016


...SOUTHEAST MINNESOTA...


CITY           SKY/WX    TMP DP  RH WIND       PRES   REMARKS
ROCHESTER      CLOUDY    64  61  90 W7        29.89R
ROCHESTER/MAYO MOCLDY    67  58  72 SW8       29.89R
WINONA         CLOUDY    63  59  88 CALM      29.86R
AUSTIN         CLOUDY    64  55  72 CALM      29.87S
ALBERT LEA     CLOUDY    66  55  68 S5        29.87R
DODGE CENTER   CLOUDY    64  57  77 SW7       29.89R
PRESTON        CLOUDY    63  57  79 CALM      29.89R
OWATONNA       CLOUDY    66  57  72 S3        29.87S
FARIBAULT      NOT AVBL
$$

...ELSEWHERE IN MINNESOTA...


CITY           SKY/WX    TMP DP  RH WIND       PRES   REMARKS
MINNEAPOLIS    CLOUDY    69  54  58 SE3       29.84R
INTNL FALLS    CLEAR     53  51  93 SW3       29.79R
DULUTH         PTCLDY    50  47  89 W6        29.85R
RED WING       NOT AVBL
REDWOOD FALLS  CLOUDY    66  55  67 S8        29.82S
MANKATO        CLOUDY    68  57  68 S6        29.83F
WORTHINGTON    CLOUDY    62  58  86 SE3       29.86S
FAIRMONT       CLOUDY    64  55  72 CALM      29.84R
$$

...SOUTHWEST WISCONSIN...


CITY           SKY/WX    TMP DP  RH WIND       PRES   REMARKS
LA CROSSE      CLOUDY    65  60  84 SE5       29.85S
PRAIRIE DU CHI CLOUDY    66  62  86 CALM      29.86F
BOSCOBEL       MOCLDY    64  63  96 CALM      29.87S
LONE ROCK      NOT AVBL
PLATTEVILLE    CLOUDY    69  58  66 CALM      29.88S
FORT MC COY    CLOUDY    60  58  96 CALM      29.88S
MAUSTON-NEW LI CLOUDY    61  61  99 CALM      29.87S
VIROQUA        FAIR      67  60  79 SE5       29.88F
WIS DELLS      CLOUDY    63  59  86 CALM      29.88F
$$

...ELSEWHERE IN WISCONSIN...


CITY           SKY/WX    TMP DP  RH WIND       PRES   REMARKS
MILWAUKEE      MOCLDY    66  60  81 CALM      29.86F
MADISON        CLOUDY    63  58  83 CALM      29.86F
GREEN BAY      CLEAR     61  59  93 W3        29.86S
EAU CLAIRE     NOT AVBL
BLACK RVR FLS  FAIR      58  58 100 CALM      29.86S
MEDFORD        CLOUDY    58  58 100 CALM      29.88R
WAUSAU         CLOUDY    61  58  90 E3        29.86R
WIS RAPIDS     PTCLDY    59  56  89 CALM      29.89R
MARSHFIELD     CLOUDY    60  56  86 CALM      29.87S
RICE LAKE      CLOUDY    61  57  87 CALM      29.89R
$$

...NORTHEAST IOWA...


CITY           SKY/WX    TMP DP  RH WIND       PRES   REMARKS
WATERLOO       CLOUDY    64  58  80 S3        29.85S
DUBUQUE        CLOUDY    69  61  75 N6        29.85F
DECORAH        CLOUDY    66  59  77 CALM      29.87F
MASON CITY     CLOUDY    63  57  81 S5        29.86R
CHARLES CITY   CLOUDY    64  59  82 SE3       29.86F
OELWEIN        CLOUDY    64  61  88 E6        29.87F
$$

...ELSEWHERE IN IOWA...


CITY           SKY/WX    TMP DP  RH WIND       PRES   REMARKS
DES MOINES     CLOUDY    65  58  78 SW10      29.81F
IOWA CITY      CLOUDY    68  58  70 S9        29.88R
FORT DODGE     CLOUDY    64  54  68 SE7       29.80S
MARSHALLTOWN   CLOUDY    66  57  72 E6        29.80F
CEDAR RAPIDS   CLOUDY    64  59  83 NW5       29.84F
$$

...NORTHERN ILLINOIS...


CITY           SKY/WX    TMP DP  RH WIND       PRES   REMARKS
CHICAGO-OHARE  CLOUDY    74  67  78 SW9       29.88R
CHICAGO-MIDWAY CLOUDY    74  66  76 S12       29.88F
MOLINE         CLOUDY    72  62  71 W5        29.85S
ROCKFORD       CLOUDY    70  64  81 CALM      29.88F
PEORIA         CLOUDY    71  65  81 S10       29.89R
$$

NOTE: "FAIR" INDICATES FEW OR NO CLOUDS BELOW 12,000 FEET WITH NO
SIGNIFICANT WEATHER AND/OR OBSTRUCTIONS TO VISIBILITY. WIND
SPEEDS ARE IN MILES-PER-HOUR.




USA.gov is the U.S. government's official web portal to all federal, state and local government web resources and services.